Date,TemperatureHighF,TemperatureAvgF,TemperatureLowF,DewpointHighF,DewpointAvgF,DewpointLowF,HumidityHigh,HumidityAvg,HumidityLow,PressureMaxIn,PressureMinIn,WindSpeedMaxMPH,WindSpeedAvgMPH,GustSpeedMaxMPH,PrecipitationSumIn
2013-1-9,41,41,41,27,27,26,57,57,57,29.74,29.71,0,0,0,0.00
2013-1-12,43,39,37,42,38,37,98,96,91,29.80,29.74,1,0,2,0.00
2013-1-13,47,42,37,46,42,36,98,98,98,29.80,29.59,2,0,3,0.17
2013-1-14,53,46,36,51,43,23,98,89,54,29.89,29.50,6,1,6,0.17
2013-1-15,36,35,30,28,28,25,84,75,63,29.95,29.80,0,0,0,0.00
2013-1-16,35,32,29,32,30,24,98,92,70,29.83,29.42,0,0,0,0.00
2013-1-17,43,33,27,37,26,11,98,78,49,29.74,29.47,0,0,0,0.13
2013-1-18,30,23,20,12,5,1,54,46,35,30.07,29.65,0,0,0,0.00
2013-1-19,36,33,22,21,18,6,57,53,51,29.98,29.47,0,0,0,0.08
2013-1-20,36,36,36,21,21,21,53,53,53,29.56,29.24,0,0,0,0.13
2013-1-21,36,32,20,21,19,9,82,60,42,29.68,29.39,0,0,0,0.04
2013-1-22,27,19,11,17,2,-9,85,48,33,29.71,29.39,0,0,0,0.00
2013-1-23,22,12,7,-1,-8,-13,44,39,35,29.77,29.68,0,0,0,0.00
2013-1-24,23,12,5,-1,-9,-14,41,37,33,29.89,29.71,4,0,9,0.00
2013-1-25,24,17,10,8,-3,-12,67,40,35,29.95,29.65,4,1,6,0.00
2013-1-26,28,17,8,7,2,-2,70,54,38,29.89,29.59,6,1,8,0.00
2013-1-27,36,20,10,8,1,-4,67,44,31,30.09,29.89,4,1,6,0.00
2013-1-28,32,25,16,29,16,1,93,70,46,30.07,29.59,1,0,2,0.00
2013-1-29,38,32,27,32,29,26,98,89,75,29.74,29.56,2,0,3,0.08
2013-1-30,54,43,32,54,42,32,98,98,98,29.71,29.03,3,1,6,0.21
2013-1-31,58,45,29,57,32,10,98,64,34,29.27,28.65,8,3,14,0.91
2013-2-1,32,26,20,14,7,2,56,43,34,29.71,29.27,6,2,8,0.00
2013-2-2,36,24,16,13,7,2,65,48,33,29.83,29.62,4,1,6,0.00
2013-2-3,34,24,18,18,13,10,81,63,43,29.62,29.36,2,0,4,0.00
2013-2-4,32,24,19,14,8,3,73,52,36,29.53,29.33,5,1,11,0.00
2013-2-5,31,26,22,21,13,6,83,58,46,29.59,29.50,4,0,4,0.00
2013-2-6,42,30,23,27,16,0,90,60,34,29.92,29.47,4,1,8,0.00
2013-2-7,37,26,18,10,6,0,54,43,31,30.09,29.92,3,1,4,0.00
2013-2-8,32,27,20,29,20,7,96,76,44,29.98,29.24,6,2,8,0.00
2013-2-9,34,23,11,23,9,-7,98,58,31,29.83,29.27,10,4,13,0.00
2013-2-10,50,21,6,17,2,-11,69,46,27,30.07,29.83,2,1,4,0.00
2013-2-11,38,31,20,37,26,10,98,84,65,29.92,29.27,2,0,3,0.00
2013-2-12,50,38,33,36,28,22,98,70,38,29.50,29.27,6,1,8,0.00
2013-2-13,53,37,28,27,22,18,73,55,34,29.50,29.30,3,1,5,0.00
2013-2-14,52,35,23,30,24,17,95,68,34,29.56,29.30,3,1,4,0.29
2013-2-15,57,39,28,34,29,23,96,73,37,29.62,29.50,3,1,5,0.71
2013-2-16,49,35,29,31,24,14,97,67,37,29.56,29.33,3,1,6,0.20
2013-2-17,30,24,14,16,3,-3,60,41,34,29.44,29.18,10,4,13,0.00
2013-2-18,37,22,12,9,1,-4,53,42,29,29.80,29.44,7,3,12,0.00
2013-2-19,49,34,20,36,23,7,98,68,45,29.77,29.21,3,1,5,0.17
2013-2-20,36,30,22,35,14,4,98,53,39,29.47,29.21,8,2,10,0.00
2013-2-21,36,25,20,14,8,5,60,49,40,29.86,29.44,9,3,11,0.00
2013-2-22,47,30,15,24,17,7,80,61,38,29.98,29.83,3,0,4,0.00
2013-2-23,39,34,32,36,30,24,98,85,73,29.86,29.44,2,0,4,0.17
2013-2-24,43,36,32,38,33,25,98,89,69,29.50,29.30,4,2,6,0.08
2013-2-25,48,35,27,30,25,23,90,70,41,29.83,29.50,3,1,4,0.00
2013-2-26,48,35,27,30,26,23,92,70,43,29.89,29.65,3,0,5,0.00
2013-2-27,43,37,33,42,36,28,98,97,81,29.65,29.18,5,1,6,1.74
2013-2-28,56,38,33,41,34,32,98,89,49,29.24,29.15,2,0,4,0.04
2013-3-1,48,38,32,36,29,23,98,74,41,29.33,29.15,4,1,6,0.00
2013-3-2,43,35,31,27,23,21,78,62,45,29.33,29.27,5,2,6,0.00
2013-3-3,35,29,28,22,19,16,71,66,48,29.30,29.27,4,2,6,0.00
2013-3-6,35,35,34,29,28,27,78,76,74,29.62,29.59,4,2,9,0.00
2013-3-7,39,34,32,32,30,27,98,86,63,29.65,29.53,6,2,7,0.09
2013-3-8,39,35,32,34,30,24,98,84,54,29.77,29.53,5,1,6,0.00
2013-3-9,61,40,27,28,23,19,87,57,24,29.95,29.74,6,1,6,0.41
2013-3-10,57,38,24,31,26,20,88,65,36,30.03,29.89,3,1,4,0.00
2013-3-11,54,42,35,42,36,29,98,79,52,29.92,29.71,3,1,4,0.00
2013-3-12,51,46,39,50,46,36,98,98,89,29.74,29.33,4,1,6,0.96
2013-3-13,52,40,30,36,28,20,98,68,34,29.47,29.39,5,1,9,0.00
2013-3-14,35,31,28,27,16,10,81,54,37,29.50,29.42,6,2,10,0.00
2013-3-15,47,33,24,27,16,6,77,50,33,29.50,29.30,7,2,9,0.00
2013-3-16,40,34,28,26,16,12,73,48,34,29.47,29.33,4,1,9,0.00
2013-3-17,39,31,24,16,10,5,56,41,30,29.89,29.47,6,2,10,0.00
2013-3-18,39,29,20,25,9,3,87,44,30,30.03,29.71,5,1,5,0.00
2013-3-19,38,32,29,36,30,25,98,91,87,29.71,29.27,4,1,5,0.00
2013-3-20,47,33,24,29,19,14,91,60,34,29.44,29.36,7,1,9,0.16
2013-3-21,44,32,25,22,17,9,76,54,34,29.42,29.21,3,1,6,0.12
2013-3-22,45,32,21,21,14,7,62,49,37,29.44,29.27,6,1,9,0.00
2013-3-23,49,37,30,24,19,14,68,49,31,29.47,29.36,8,2,13,0.00
2013-3-24,51,37,26,25,20,16,72,52,35,29.50,29.33,4,1,7,0.00
2013-3-25,48,38,31,27,23,21,69,56,39,29.39,29.09,6,1,6,0.00
2013-3-26,52,40,32,29,24,17,77,54,33,29.42,29.18,5,1,8,0.00
2013-3-27,56,41,28,27,22,18,71,49,28,29.53,29.42,9,2,9,0.00
2013-3-28,52,42,34,33,28,23,72,57,40,29.68,29.50,5,1,6,0.00
2013-3-29,58,45,34,31,28,23,75,51,35,29.74,29.62,4,1,6,0.00
2013-3-30,60,45,33,33,24,18,77,47,25,29.74,29.65,6,1,9,0.18
2013-3-31,60,43,28,39,27,19,86,56,30,29.74,29.30,5,1,7,0.12
2013-4-1,63,45,34,48,35,15,98,71,37,29.44,29.21,4,1,9,0.04
2013-4-2,45,34,26,17,13,8,64,43,29,29.62,29.44,8,2,9,0.00
2013-4-3,48,36,27,17,12,9,53,38,29,29.86,29.59,7,2,12,0.00
2013-4-4,60,41,26,27,18,10,65,42,24,29.95,29.65,4,1,6,0.00
2013-4-5,65,47,36,28,24,16,70,43,23,29.65,29.30,8,2,8,0.00
2013-4-6,53,40,31,20,14,9,53,36,21,29.92,29.56,6,2,10,0.00
2013-4-7,62,45,29,40,28,12,83,53,35,29.92,29.62,5,2,9,0.00
2013-4-8,71,54,38,44,37,31,96,60,26,29.71,29.56,5,1,8,0.00
2013-4-9,77,60,47,54,42,36,93,55,28,29.65,29.50,6,1,10,0.00
2013-4-10,68,56,47,51,48,37,96,75,46,29.59,29.44,4,1,6,0.54
2013-4-11,61,52,42,50,39,25,98,66,37,29.71,29.44,4,1,7,0.00
2013-4-12,42,39,37,39,36,30,98,87,64,29.71,29.36,4,1,7,0.46
2013-4-13,58,45,36,39,35,31,98,70,39,29.53,29.36,5,1,5,0.08
2013-4-14,57,44,36,39,30,21,93,61,36,29.80,29.50,6,1,8,0.00
2013-4-15,65,47,32,34,29,25,78,53,31,29.98,29.80,3,1,6,0.00
2013-4-16,71,52,35,51,41,30,88,69,38,29.98,29.68,4,1,6,0.00
2013-4-17,72,58,48,52,36,28,92,49,25,29.92,29.68,6,1,8,0.00
2013-4-18,67,52,38,43,34,27,81,53,27,29.98,29.74,4,1,5,0.00
2013-4-19,75,61,52,61,56,43,98,85,58,29.74,29.30,6,1,8,0.00
2013-4-20,62,52,40,61,37,20,98,62,29,29.86,29.27,7,2,8,0.37
2013-4-21,61,44,33,26,20,15,55,39,26,30.24,29.89,4,2,6,0.00
2013-4-22,65,47,34,30,26,22,78,48,25,30.30,30.12,5,1,10,0.00
2013-4-23,47,42,37,37,32,24,83,70,54,30.12,29.68,4,2,6,0.00
2013-4-24,81,56,42,46,42,37,87,64,28,29.68,29.44,4,1,6,0.00
2013-4-25,68,54,41,51,33,24,96,49,24,29.89,29.47,6,2,8,0.00
2013-4-26,74,52,34,34,29,23,76,46,23,30.01,29.89,4,1,7,0.00
2013-4-27,74,54,37,36,31,26,70,44,24,30.03,29.89,4,1,6,0.00
2013-4-28,78,53,39,44,37,34,86,59,25,29.95,29.89,3,0,4,0.00
2013-5-3,62,54,49,41,40,38,73,60,41,30.03,29.98,0,0,1,0.00
2013-5-4,79,57,42,50,39,33,93,58,22,30.01,29.86,3,1,6,0.00
2013-5-5,74,53,36,40,36,33,91,59,27,29.92,29.83,4,1,6,0.00
2013-5-6,79,57,42,46,43,36,84,62,31,29.92,29.77,4,0,4,0.00
2013-5-7,83,62,44,54,49,42,95,68,31,29.80,29.74,2,0,5,0.00
2013-5-8,73,61,54,61,58,53,98,88,58,29.80,29.65,2,0,6,0.50
2013-5-9,68,59,55,61,57,54,98,93,71,29.68,29.53,2,0,3,0.16
2013-5-10,83,64,50,65,54,49,98,75,33,29.62,29.56,3,0,4,0.00
2013-5-11,66,61,58,64,60,54,98,94,79,29.56,29.33,2,0,5,0.41
2013-5-12,71,59,47,59,52,28,98,81,38,29.50,29.27,3,0,5,0.00
2013-5-13,59,48,40,34,29,25,72,49,34,29.71,29.50,3,1,5,0.00
2013-5-14,62,49,38,35,30,26,72,50,29,29.68,29.62,4,0,5,0.00
2013-5-15,65,49,34,52,40,27,90,72,45,29.71,29.30,6,0,7,0.00
2013-5-16,83,64,44,58,43,33,98,57,20,29.47,29.33,3,1,6,0.00
2013-5-17,74,61,50,42,38,33,68,45,30,29.86,29.47,3,0,6,0.00
2013-5-18,72,58,42,47,42,35,83,57,33,29.95,29.86,2,0,4,0.00
2013-5-19,62,55,49,55,52,44,98,88,75,29.98,29.83,2,0,3,0.13
2013-5-20,83,67,56,68,60,55,98,81,47,29.83,29.59,3,0,4,0.00
2013-5-21,90,72,60,71,65,59,98,80,45,29.62,29.50,2,0,5,0.00
2013-5-22,79,65,55,68,61,52,96,86,67,29.62,29.50,3,0,4,0.04
2013-5-23,73,66,64,70,65,63,98,96,88,29.56,29.44,4,0,5,1.41
2013-5-24,66,58,46,66,56,45,98,93,78,29.53,29.33,3,0,4,0.50
2013-5-25,49,46,44,47,44,40,98,94,84,29.50,29.44,3,1,6,0.42
2013-5-26,62,51,44,43,40,36,88,66,42,29.77,29.44,4,1,8,0.00
2013-5-27,74,58,44,47,40,37,85,56,28,29.83,29.74,3,0,4,0.04
2013-5-28,72,58,45,55,47,40,93,70,38,29.86,29.80,2,0,3,0.00
2013-5-29,79,66,57,68,62,55,98,88,68,29.80,29.65,2,0,4,0.49
2013-5-30,89,73,61,76,66,60,98,82,41,29.80,29.71,2,0,4,0.05
2013-5-31,92,76,64,75,65,57,98,74,33,29.80,29.65,3,0,5,0.00
2013-6-1,91,76,67,69,65,61,89,70,40,29.68,29.59,4,0,4,0.00
2013-6-2,87,74,66,70,66,64,95,77,54,29.59,29.44,4,0,4,0.00
2013-6-3,78,69,61,70,64,49,98,84,64,29.56,29.47,2,0,3,0.00
2013-6-4,73,62,52,49,42,37,66,49,33,29.77,29.56,2,1,5,0.00
2013-6-5,76,62,50,52,46,42,84,57,34,29.86,29.77,2,0,3,0.00
2013-6-6,71,60,50,57,52,44,94,75,51,29.83,29.74,3,0,4,0.08
2013-6-7,59,57,56,58,57,55,98,98,94,29.71,29.44,1,0,3,2.57
2013-6-8,77,63,52,64,58,52,98,87,56,29.71,29.30,2,0,3,0.67
2013-6-9,80,67,56,62,56,52,98,73,39,29.86,29.71,3,0,4,0.04
2013-6-10,70,63,57,64,60,55,98,91,78,29.86,29.59,2,0,4,0.79
2013-6-11,71,64,59,68,63,58,98,96,79,29.59,29.27,3,0,3,0.95
2013-6-12,73,64,57,60,53,48,98,71,43,29.53,29.33,4,1,5,0.00
2013-6-13,58,56,52,57,54,51,98,96,83,29.50,29.27,4,0,4,2.03
2013-6-14,73,60,51,59,54,50,98,84,46,29.50,29.27,3,0,4,0.91
2013-6-15,78,66,56,60,53,45,98,69,32,29.65,29.50,2,0,4,0.00
2013-6-16,74,64,52,63,57,48,91,78,63,29.65,29.42,3,0,3,0.00
2013-6-17,86,71,60,67,61,56,98,75,37,29.56,29.50,3,0,5,0.00
2013-6-21,85,75,62,61,57,53,80,55,39,29.95,29.89,3,0,4,1.20
2013-6-22,85,71,61,59,54,51,79,58,33,29.95,29.83,3,0,4,0.04
2013-6-23,90,76,63,66,60,53,81,60,33,29.86,29.74,2,0,2,0.00
2013-6-24,81,76,69,71,68,65,94,78,69,29.77,29.65,0,0,0,0.00
2013-6-25,90,76,66,70,66,63,94,74,40,29.68,29.47,2,0,5,0.05
2013-6-26,84,74,69,74,68,66,96,83,56,29.53,29.44,2,0,3,0.00
2013-6-27,83,72,68,71,68,66,97,88,59,29.53,29.36,3,0,3,1.12
2013-6-28,81,73,68,76,70,67,98,91,66,29.36,29.18,4,0,4,0.37
2013-6-29,84,74,70,71,68,63,97,82,55,29.42,29.21,3,0,6,0.00
2013-6-30,80,74,70,71,69,68,96,84,69,29.62,29.42,3,0,4,0.05
2013-7-1,76,73,71,74,71,69,97,95,90,29.77,29.59,1,0,3,0.37
2013-7-2,72,71,71,71,71,70,98,98,94,29.86,29.74,3,0,4,0.00
2013-7-3,80,75,70,70,70,69,96,86,73,29.92,29.83,3,0,3,0.00
2013-7-4,91,80,72,75,70,66,96,76,46,29.92,29.83,2,0,2,0.00
2013-7-5,92,81,72,73,69,64,91,71,41,29.89,29.77,2,0,2,0.00
2013-7-6,89,79,73,74,70,64,90,75,44,29.80,29.71,0,0,0,0.00
2013-7-7,85,77,71,75,71,69,95,83,63,29.74,29.59,0,0,0,0.17
2013-7-8,84,76,70,73,70,67,95,81,63,29.74,29.62,0,0,0,0.79
2013-7-9,80,73,67,71,69,66,97,87,73,29.80,29.71,0,0,0,0.00
2013-7-10,85,77,72,74,72,70,96,87,67,29.71,29.50,0,0,0,1.74
2013-7-11,81,74,68,75,71,63,98,89,71,29.59,29.47,0,0,0,0.00
2013-7-12,82,72,66,66,62,55,88,71,51,29.83,29.59,0,0,2,0.00
2013-7-13,79,70,65,71,65,56,95,84,64,29.98,29.83,2,0,2,0.04
2013-7-14,89,78,71,76,71,68,97,81,51,30.01,29.89,1,1,1,0.13
2013-7-15,88,77,71,75,71,65,96,84,46,29.92,29.80,1,1,1,0.00
2013-7-16,88,78,70,72,68,66,88,74,47,29.89,29.80,1,1,1,0.00
2013-7-17,91,78,69,70,68,66,90,73,44,29.89,29.74,1,1,1,0.00
2013-7-18,82,79,74,74,72,68,86,78,74,29.74,29.65,0,0,0,0.00
2013-7-19,93,85,76,75,69,67,83,63,43,29.65,29.47,0,0,0,0.00
2013-7-20,85,82,77,73,71,70,86,72,63,29.53,29.39,0,0,0,0.00
2013-7-21,85,82,70,71,68,57,71,63,45,29.68,29.53,0,0,0,0.00
2013-7-22,83,74,66,70,65,60,91,76,60,29.68,29.53,0,0,0,0.00
2013-7-23,77,74,72,75,72,68,96,92,76,29.53,29.27,0,0,0,0.96
2013-7-24,79,73,65,72,64,53,96,75,47,29.62,29.30,0,0,0,0.00
2013-7-25,66,62,58,58,51,44,92,70,55,29.77,29.62,0,0,0,0.04
2013-7-26,77,66,60,66,62,58,96,86,59,29.71,29.65,0,0,0,0.29
2013-7-27,75,69,62,66,63,60,96,82,70,29.77,29.68,0,0,0,0.00
2013-7-28,75,71,65,65,63,62,93,77,63,29.71,29.65,0,0,0,0.00
2013-7-29,70,69,66,69,66,52,95,90,59,29.77,29.65,0,0,0,0.00
2013-7-30,74,68,59,58,54,50,82,62,49,29.83,29.77,0,0,0,0.00
2013-7-31,79,69,59,61,56,53,88,65,41,29.83,29.74,0,0,0,0.00
2013-8-1,76,66,61,66,62,58,96,87,61,29.74,29.53,0,0,0,0.78
2013-8-2,69,67,65,68,66,60,98,96,78,29.59,29.47,0,0,0,0.71
2013-8-3,71,68,63,63,62,59,93,81,76,29.59,29.53,0,0,0,0.17
2013-8-4,71,65,57,63,57,50,97,77,55,29.62,29.53,0,0,0,0.00
2013-8-5,74,65,57,54,48,43,84,57,34,29.74,29.62,0,0,0,0.00
2013-8-6,78,64,52,56,52,48,90,66,37,29.83,29.74,0,0,0,0.00
2013-8-7,79,67,57,61,56,52,92,70,42,29.86,29.77,0,0,0,0.00
2013-8-8,75,72,68,69,66,61,94,83,76,29.77,29.71,0,0,0,0.00
2013-8-9,74,72,71,73,71,68,98,95,90,29.74,29.50,0,0,0,1.78
2013-8-10,79,73,61,71,64,53,98,78,53,29.74,29.53,0,0,0,0.00
2013-8-11,71,65,54,59,53,48,87,67,51,29.80,29.71,0,0,0,0.00
2013-8-12,74,70,61,63,58,57,94,70,55,29.74,29.62,0,0,0,0.00
2013-8-13,74,72,65,69,63,57,94,77,55,29.65,29.39,0,0,0,0.08
2013-8-14,70,63,56,63,52,46,94,70,43,29.71,29.42,0,0,0,0.00
2013-8-15,73,63,54,56,50,47,86,65,40,29.83,29.71,0,0,0,0.00
2013-8-16,76,64,52,58,53,50,92,71,44,29.89,29.80,0,0,0,0.00
2013-8-17,73,66,56,60,56,52,93,72,58,29.98,29.89,0,0,0,0.00
2013-8-18,69,66,59,60,58,53,92,77,64,29.95,29.80,0,0,0,0.00
2013-8-19,69,65,61,63,61,56,91,86,71,29.80,29.71,0,0,0,0.00
2013-8-20,71,68,62,65,63,60,92,85,77,29.83,29.71,0,0,0,0.00
2013-8-21,67,66,61,65,63,59,93,92,84,29.86,29.74,0,0,0,0.00
2013-8-22,77,69,66,67,64,63,92,87,67,29.77,29.56,0,0,0,0.00
2013-8-23,71,70,69,67,62,58,90,78,65,29.83,29.56,0,0,0,0.00
2013-8-24,75,66,53,58,49,46,81,58,38,30.03,29.83,0,0,0,0.00
2013-8-25,72,65,53,59,55,50,92,73,60,30.07,29.89,0,0,0,0.00
2013-8-26,72,71,68,66,59,57,92,66,60,29.89,29.59,0,0,0,0.29
2013-8-27,69,68,68,68,67,66,98,96,92,29.59,29.50,0,0,0,1.25
2013-8-28,70,69,66,69,68,65,98,97,91,29.62,29.53,0,0,0,1.25
2013-8-29,70,69,65,68,65,60,95,88,82,29.74,29.59,0,0,0,1.25
2013-8-30,75,70,64,67,64,60,90,82,75,29.71,29.53,0,0,0,1.25
2013-8-31,78,73,70,72,70,67,94,90,75,29.56,29.50,0,0,0,1.25
2013-9-1,73,72,68,71,70,67,96,95,94,29.56,29.50,0,0,0,1.25
2013-10-27,55,40,34,26,23,21,68,51,33,29.74,29.62,2,0,2,1.25
2013-10-28,62,42,29,36,27,24,86,59,32,29.98,29.71,6,1,6,1.25
2013-10-29,55,40,32,27,22,19,63,48,32,30.12,29.98,0,0,0,1.25
2013-10-30,56,43,32,38,31,21,86,64,42,29.98,29.80,0,0,0,1.25
2013-10-31,58,48,35,57,45,32,97,87,69,29.86,29.44,0,0,0,1.25
2013-11-1,69,60,52,62,56,48,98,85,50,29.44,29.15,0,0,0,1.25
2013-11-2,61,46,41,50,42,36,96,87,40,29.39,29.27,0,0,0,1.25
2013-11-3,52,42,28,43,26,11,90,56,37,30.03,29.39,0,0,0,1.25
2013-11-4,47,32,24,19,14,11,61,47,31,30.33,30.03,0,0,0,1.25
2013-11-5,54,39,26,33,24,15,72,55,38,30.33,30.12,0,0,0,1.25
2013-11-6,64,48,35,46,37,30,86,69,38,30.12,29.68,0,0,0,1.25
2013-11-7,63,51,36,57,46,30,94,82,65,29.68,29.36,0,0,0,1.25
2013-11-8,50,40,32,34,26,18,89,60,38,29.74,29.47,0,0,0,1.25
2013-11-9,50,38,27,28,23,19,80,58,38,29.86,29.62,0,0,0,1.25
2013-11-10,57,46,39,33,29,24,66,53,36,29.62,29.44,0,0,0,1.25
2013-11-11,57,45,38,29,23,20,53,43,35,29.83,29.53,0,0,0,1.25
2013-11-12,49,35,26,30,16,8,71,47,40,29.83,29.53,0,0,0,1.25
2013-11-13,40,29,22,13,9,7,54,44,32,30.01,29.80,0,0,0,1.25
2013-11-14,54,38,27,22,15,11,53,40,28,29.83,29.71,0,0,0,1.25
2013-11-15,62,43,29,26,19,11,51,38,25,29.86,29.74,0,0,0,1.25
2013-11-16,64,46,36,35,27,19,75,49,33,29.98,29.80,0,0,0,1.25
2013-11-17,54,46,35,52,41,29,96,82,60,29.89,29.42,0,0,0,1.25
2013-11-18,67,57,44,60,40,24,98,59,30,29.42,29.18,0,0,0,1.25
2013-11-19,47,39,29,24,18,12,52,42,35,29.92,29.33,0,0,0,1.25
2013-11-20,45,30,22,15,11,8,56,46,30,30.21,29.92,0,0,0,1.25
2013-11-21,50,33,19,28,18,8,72,55,36,30.24,29.98,0,0,0,1.25
2013-11-22,53,45,40,47,40,28,96,83,62,29.98,29.44,0,0,0,1.25
2013-11-23,48,39,29,46,21,8,96,49,34,29.68,29.44,0,0,0,1.25
2013-11-24,29,23,19,8,2,-2,43,39,32,29.86,29.50,0,0,0,1.25
2013-11-25,38,26,16,12,5,-2,45,41,33,30.07,29.86,0,0,0,1.25
2013-11-26,40,34,30,30,17,9,87,50,39,29.92,29.56,0,0,0,1.25
2013-11-27,51,40,33,50,37,24,98,90,60,29.53,28.94,0,0,0,1.25
2013-11-28,35,29,21,24,11,5,63,46,35,30.07,29.24,0,0,0,1.25
2013-11-29,38,27,21,15,11,7,63,51,38,30.30,30.03,0,0,0,1.25
2013-11-30,36,24,15,13,8,5,66,51,36,30.39,30.01,0,0,0,1.25
2013-12-1,43,34,29,27,20,13,77,58,47,30.01,29.62,0,0,0,1.25
2013-12-2,42,35,28,33,29,25,89,79,69,29.62,29.50,0,0,0,1.25
2013-12-3,51,35,28,38,30,25,94,84,51,29.59,29.47,0,0,0,1.25
2013-12-4,53,35,26,34,26,23,91,74,39,29.77,29.59,0,0,0,1.25
2013-12-5,52,40,35,51,36,27,98,86,68,29.77,29.53,0,0,0,1.25
2013-12-6,53,44,35,52,41,30,98,89,69,29.77,29.47,0,0,0,1.25
2013-12-7,38,33,27,32,22,13,96,68,43,30.09,29.68,0,0,0,1.25
2013-12-8,32,28,21,19,14,12,75,57,47,30.18,30.03,0,0,0,1.25
2013-12-9,33,30,26,31,26,13,96,85,51,30.03,29.53,0,0,0,1.25
2013-12-10,34,30,22,33,29,20,98,94,89,29.62,29.42,0,0,0,1.25
2013-12-11,32,23,18,25,18,15,91,82,62,29.83,29.62,0,0,0,1.25
2013-12-12,27,18,13,18,9,4,90,70,43,29.89,29.68,0,0,0,1.25
2013-12-13,35,22,13,14,9,5,73,58,42,29.95,29.62,0,0,0,1.25
2013-12-14,22,16,13,10,4,2,79,58,51,30.12,29.62,0,0,0,1.25
2013-12-15,37,26,15,28,19,10,90,76,55,29.59,29.09,0,0,0,1.25
2013-12-16,33,21,7,18,8,-5,80,58,35,29.80,29.36,0,0,0,1.25
2013-12-17,17,10,0,9,-1,-11,77,61,57,29.83,29.53,0,0,0,1.25
2013-12-18,37,23,14,20,13,8,83,66,42,29.71,29.50,0,0,0,1.25
2013-12-19,34,25,22,18,16,13,76,67,50,29.71,29.68,0,0,0,1.25